When you browse on this site, cookies collect data to enhance your experience and personalize the content and advertising you see.
Visit our Privacy Policy to learn more. By continuing to use the site, you agree to this use of cookies and data.
  • En España
  • Lista de países
  • Para 7 días
  • Temperatura del agua
  • El tiempo en el mapa
  • Informadores
  • user-avatar
    Iniciar sesión

    Tiempo cada hora Leigh

    Hoy, 15 Noviembre, Viernes

    Tiempo Temperatura Precipitaciones Viento Presión Humedad
    00:00 +5°C° 0 mm 5 mps 754 mmHg 85%
    01:00 +5°C° 0 mm 4 mps 754 mmHg 86%
    02:00 +5°C° 0 mm 4 mps 754 mmHg 87%
    03:00 +5°C° 0 mm 4 mps 754 mmHg 87%
    04:00 +5°C° 0.1 mm 4 mps 754 mmHg 87%
    05:00 +5°C° 0.1 mm 4 mps 754 mmHg 88%
    06:00 +5°C° 0 mm 3 mps 754 mmHg 89%
    07:00 +5°C° 0.3 mm 4 mps 755 mmHg 88%
    08:00 +6°C° 0.3 mm 4 mps 755 mmHg 88%
    09:00 +6°C° 0.3 mm 4 mps 755 mmHg 87%
    10:00 +6°C° 0 mm 5 mps 755 mmHg 84%
    11:00 +7°C° 0 mm 5 mps 755 mmHg 80%
    12:00 +8°C° 0 mm 5 mps 756 mmHg 76%
    13:00 +8°C° 0 mm 5 mps 755 mmHg 76%
    14:00 +7°C° 0 mm 5 mps 755 mmHg 76%
    15:00 +7°C° 0 mm 5 mps 755 mmHg 76%
    16:00 +7°C° 0 mm 5 mps 755 mmHg 77%
    17:00 +6°C° 0 mm 5 mps 755 mmHg 79%
    18:00 +5°C° 0 mm 5 mps 755 mmHg 80%
    19:00 +5°C° 0 mm 5 mps 755 mmHg 80%
    20:00 +5°C° 0 mm 4 mps 755 mmHg 80%
    21:00 +5°C° 0 mm 4 mps 755 mmHg 80%
    22:00 +5°C° 0 mm 4 mps 755 mmHg 81%
    23:00 +5°C° 0 mm 4 mps 755 mmHg 82%

    Mañana, 16 Noviembre, Sábado

    Tiempo Temperatura Precipitaciones Viento Presión Humedad
    00:00 +5°C° 0 mm 4 mps 754 mmHg 83%
    01:00 +5°C° 0 mm 4 mps 754 mmHg 84%
    02:00 +6°C° 0 mm 4 mps 754 mmHg 85%
    03:00 +6°C° 0 mm 4 mps 754 mmHg 86%
    04:00 +6°C° 0 mm 4 mps 754 mmHg 87%
    05:00 +7°C° 0 mm 3 mps 754 mmHg 88%
    06:00 +7°C° 0 mm 3 mps 754 mmHg 88%
    07:00 +7°C° 0 mm 3 mps 754 mmHg 88%
    08:00 +7°C° 0 mm 3 mps 754 mmHg 88%
    09:00 +7°C° 0 mm 2 mps 754 mmHg 89%
    10:00 +8°C° 0 mm 2 mps 754 mmHg 86%
    11:00 +8°C° 0 mm 2 mps 754 mmHg 83%
    12:00 +9°C° 0 mm 2 mps 754 mmHg 80%
    13:00 +9°C° 0 mm 2 mps 754 mmHg 81%
    14:00 +10°C° 0 mm 1 mps 754 mmHg 82%
    15:00 +9°C° 0 mm 1 mps 753 mmHg 83%
    16:00 +9°C° 0 mm 1 mps 754 mmHg 85%
    17:00 +9°C° 0 mm 1 mps 754 mmHg 86%
    18:00 +8°C° 0 mm 1 mps 754 mmHg 88%
    19:00 +8°C° 0 mm 1 mps 754 mmHg 88%
    20:00 +8°C° 0 mm 1 mps 754 mmHg 88%
    21:00 +7°C° 0 mm 1 mps 755 mmHg 88%
    22:00 +6°C° 0 mm 0 mps 755 mmHg 89%
    23:00 +6°C° 0 mm 0 mps 755 mmHg 89%

    Pasado mañana, 17 Noviembre, Domingo

    Tiempo Temperatura Precipitaciones Viento Presión Humedad
    00:00 +6°C° 0 mm 0 mps 755 mmHg 90%
    01:00 +6°C° 0 mm 0 mps 755 mmHg 90%
    02:00 +6°C° 0 mm 0 mps 755 mmHg 90%
    03:00 +6°C° 0 mm 0 mps 755 mmHg 90%
    04:00 +5°C° 0 mm 0 mps 755 mmHg 90%
    05:00 +5°C° 0 mm 0 mps 756 mmHg 91%
    06:00 +5°C° 0 mm 0 mps 756 mmHg 91%
    07:00 +6°C° 0 mm 0 mps 756 mmHg 90%
    08:00 +6°C° 0 mm 0 mps 756 mmHg 89%
    09:00 +6°C° 0 mm 0 mps 757 mmHg 89%
    10:00 +8°C° 0 mm 1 mps 757 mmHg 86%
    11:00 +8°C° 0 mm 1 mps 757 mmHg 83%
    12:00 +8°C° 0 mm 2 mps 758 mmHg 80%
    13:00 +8°C° 0 mm 2 mps 758 mmHg 81%
    14:00 +8°C° 0 mm 2 mps 758 mmHg 82%
    15:00 +8°C° 0 mm 2 mps 758 mmHg 83%
    16:00 +7°C° 0.2 mm 2 mps 758 mmHg 84%
    17:00 +7°C° 0.2 mm 2 mps 758 mmHg 86%
    18:00 +7°C° 0.2 mm 2 mps 759 mmHg 88%
    19:00 +7°C° 0.2 mm 3 mps 759 mmHg 88%
    20:00 +7°C° 0.2 mm 3 mps 759 mmHg 87%
    21:00 +7°C° 0.2 mm 3 mps 759 mmHg 87%
    22:00 +7°C° 0 mm 3 mps 760 mmHg 87%
    23:00 +7°C° 0 mm 3 mps 760 mmHg 87%

    18 Noviembre, Lunes

    Tiempo Temperatura Precipitaciones Viento Presión Humedad
    00:00 +5°C° 0 mm 3 mps 760 mmHg 87%
    01:00 +5°C° 0 mm 3 mps 760 mmHg 86%
    02:00 +5°C° 0 mm 3 mps 760 mmHg 85%
    03:00 +5°C° 0 mm 3 mps 760 mmHg 85%
    04:00 +5°C° 0 mm 3 mps 760 mmHg 86%
    05:00 +4°C° 0 mm 3 mps 760 mmHg 87%
    06:00 +5°C° 0 mm 2 mps 760 mmHg 88%
    07:00 +5°C° 0 mm 2 mps 760 mmHg 88%
    08:00 +5°C° 0 mm 2 mps 760 mmHg 88%
    09:00 +4°C° 0 mm 3 mps 761 mmHg 87%
    10:00 +5°C° 0 mm 3 mps 760 mmHg 83%
    11:00 +6°C° 0 mm 4 mps 760 mmHg 79%
    12:00 +7°C° 0 mm 5 mps 760 mmHg 75%
    13:00 +6°C° 0 mm 4 mps 759 mmHg 74%
    14:00 +6°C° 0 mm 4 mps 759 mmHg 74%
    15:00 +7°C° 0 mm 3 mps 759 mmHg 74%
    16:00 +5°C° 0 mm 3 mps 758 mmHg 75%
    17:00 +4°C° 0 mm 3 mps 758 mmHg 77%
    18:00 +4°C° 0 mm 3 mps 758 mmHg 78%
    19:00 +3°C° 0 mm 3 mps 758 mmHg 79%
    20:00 +3°C° 0 mm 3 mps 757 mmHg 79%
    21:00 +4°C° 0 mm 2 mps 757 mmHg 79%
    22:00 +4°C° 0 mm 2 mps 757 mmHg 79%
    23:00 +4°C° 0 mm 2 mps 756 mmHg 79%

    19 Noviembre, Martes

    Tiempo Temperatura Precipitaciones Viento Presión Humedad
    00:00 +4°C° 0 mm 2 mps 756 mmHg 80%
    01:00 +4°C° 0 mm 2 mps 756 mmHg 80%
    02:00 +4°C° 0 mm 2 mps 755 mmHg 80%
    03:00 +4°C° 0 mm 2 mps 755 mmHg 81%
    04:00 +4°C° 0 mm 2 mps 754 mmHg 81%
    05:00 +4°C° 0 mm 2 mps 754 mmHg 82%
    06:00 +5°C° 0 mm 1 mps 754 mmHg 83%
    07:00 +4°C° 0 mm 2 mps 754 mmHg 83%
    08:00 +4°C° 0 mm 2 mps 754 mmHg 84%
    09:00 +4°C° 0 mm 2 mps 754 mmHg 84%
    10:00 +5°C° 0 mm 2 mps 753 mmHg 83%
    11:00 +5°C° 0 mm 2 mps 753 mmHg 82%
    12:00 +7°C° 0 mm 1 mps 753 mmHg 81%
    13:00 +7°C° 0 mm 1 mps 753 mmHg 81%
    14:00 +7°C° 0 mm 1 mps 752 mmHg 81%
    15:00 +7°C° 0 mm 1 mps 752 mmHg 81%
    16:00 +6°C° 0 mm 2 mps 752 mmHg 81%
    17:00 +6°C° 0 mm 2 mps 752 mmHg 82%
    18:00 +6°C° 0 mm 2 mps 752 mmHg 82%
    19:00 +5°C° 0 mm 2 mps 752 mmHg 83%
    20:00 +5°C° 0 mm 2 mps 752 mmHg 83%
    21:00 +4°C° 0 mm 3 mps 752 mmHg 84%
    22:00 +4°C° 0 mm 3 mps 752 mmHg 84%
    23:00 +4°C° 0 mm 3 mps 752 mmHg 85%

    20 Noviembre, Miércoles

    Tiempo Temperatura Precipitaciones Viento Presión Humedad
    00:00 +4°C° 0 mm 3 mps 751 mmHg 85%
    01:00 +4°C° 0 mm 3 mps 751 mmHg 86%
    02:00 +4°C° 0 mm 3 mps 750 mmHg 88%
    03:00 +4°C° 0 mm 4 mps 750 mmHg 89%
    04:00 +4°C° 0.1 mm 4 mps 750 mmHg 88%
    05:00 +3°C° 0.1 mm 5 mps 749 mmHg 87%
    06:00 +4°C° 0.1 mm 6 mps 749 mmHg 86%
    07:00 +5°C° 0.2 mm 5 mps 749 mmHg 87%
    08:00 +5°C° 0.2 mm 5 mps 749 mmHg 87%
    09:00 +6°C° 0.2 mm 5 mps 749 mmHg 87%
    10:00 +6°C° 0 mm 5 mps 749 mmHg 84%
    11:00 +7°C° 0 mm 5 mps 750 mmHg 81%
    12:00 +7°C° 0 mm 5 mps 750 mmHg 77%
    13:00 +7°C° 0 mm 5 mps 750 mmHg 78%
    14:00 +7°C° 0 mm 4 mps 750 mmHg 79%
    15:00 +8°C° 0 mm 3 mps 750 mmHg 80%
    16:00 +7°C° 0 mm 3 mps 751 mmHg 83%
    17:00 +5°C° 0 mm 3 mps 751 mmHg 85%
    18:00 +6°C° 0 mm 2 mps 752 mmHg 88%
    19:00 +5°C° 0 mm 2 mps 752 mmHg 89%
    20:00 +5°C° 0 mm 2 mps 752 mmHg 89%
    21:00 +5°C° 0 mm 2 mps 753 mmHg 90%
    22:00 +5°C° 0 mm 2 mps 753 mmHg 90%
    23:00 +5°C° 0 mm 2 mps 753 mmHg 91%
    Mostrar más